NVA1003 SAZN-SAMR

Flight info

Callsign NVA1003
Flight time 1h 16m
Altitude 16000
Route KOTOG2C KOTOG W37 ISEGA
Aircraft B190/M-SDFGRY/S

Departure

Time 2026-05-07 14:11
Airport Presidente Perón International Airport (SAZN)

Arrival

Time 2026-05-07 15:27
Airport Suboficial Ay Santiago Germano Airport (SAMR)
Time Latitude Longitude Altitude Speed Heading
2026-05-07 13:55 -38.95110 -68.13930 890 ft 0 kts 261°
2026-05-07 14:08 -38.95112 -68.13941 890 ft 2 kts 264°
2026-05-07 14:08 -38.95108 -68.13956 890 ft 1 kts 317°
2026-05-07 14:09 -38.95077 -68.13966 890 ft 8 kts 348°
2026-05-07 14:09 -38.95020 -68.14020 891 ft 11 kts 313°
2026-05-07 14:09 -38.94968 -68.14090 891 ft 7 kts 316°
2026-05-07 14:09 -38.94932 -68.14136 891 ft 6 kts 314°
2026-05-07 14:10 -38.94913 -68.14222 891 ft 22 kts 271°
2026-05-07 14:10 -38.94902 -68.14688 891 ft 82 kts 266°
2026-05-07 14:10 -38.94901 -68.15678 895 ft 131 kts 270°
2026-05-07 14:10 -38.94883 -68.16965 1010 ft 149 kts 270°
2026-05-07 14:11 -38.94832 -68.18296 1384 ft 148 kts 272°
2026-05-07 14:11 -38.94820 -68.19621 1782 ft 149 kts 264°
2026-05-07 14:11 -38.94900 -68.20987 2167 ft 151 kts 268°
2026-05-07 14:11 -38.94817 -68.22330 2533 ft 153 kts 276°
2026-05-07 14:12 -38.94805 -68.23731 2891 ft 158 kts 266°
2026-05-07 14:12 -38.94823 -68.25126 3397 ft 153 kts 264°
2026-05-07 14:12 -38.95088 -68.26437 3879 ft 152 kts 248°
2026-05-07 14:12 -38.95357 -68.27834 4105 ft 166 kts 266°
2026-05-07 14:13 -38.95245 -68.29273 4646 ft 158 kts 287°
2026-05-07 14:13 -38.94732 -68.30526 4810 ft 177 kts 313°
2026-05-07 14:13 -38.93552 -68.31043 4967 ft 185 kts
2026-05-07 14:13 -38.92280 -68.30618 5240 ft 188 kts 15°
2026-05-07 14:14 -38.91019 -68.30157 5490 ft 189 kts 15°
2026-05-07 14:14 -38.89757 -68.29645 5741 ft 191 kts 15°
2026-05-07 14:14 -38.88454 -68.29160 5995 ft 190 kts
2026-05-07 14:14 -38.87133 -68.28888 6246 ft 190 kts
2026-05-07 14:15 -38.85822 -68.28640 6495 ft 190 kts
2026-05-07 14:15 -38.84503 -68.28384 6744 ft 191 kts
2026-05-07 14:15 -38.83186 -68.28014 6996 ft 191 kts
2026-05-07 14:15 -38.81888 -68.27718 7244 ft 190 kts
2026-05-07 14:16 -38.80577 -68.27407 7495 ft 189 kts
2026-05-07 14:16 -38.79271 -68.27082 7746 ft 188 kts
2026-05-07 14:16 -38.77978 -68.26754 7996 ft 187 kts
2026-05-07 14:16 -38.76703 -68.26428 8244 ft 186 kts
2026-05-07 14:17 -38.75432 -68.26104 8493 ft 186 kts
2026-05-07 14:17 -38.74136 -68.25771 8746 ft 185 kts
2026-05-07 14:17 -38.72888 -68.25451 8988 ft 183 kts
2026-05-07 14:17 -38.71646 -68.25133 9234 ft 182 kts
2026-05-07 14:18 -38.70400 -68.24814 9483 ft 180 kts
2026-05-07 14:18 -38.69168 -68.24499 9730 ft 179 kts
2026-05-07 14:18 -38.67944 -68.24186 9980 ft 178 kts
2026-05-07 14:18 -38.66723 -68.23873 10230 ft 178 kts
2026-05-07 14:19 -38.65512 -68.23564 10478 ft 178 kts
2026-05-07 14:19 -38.64267 -68.23245 10733 ft 178 kts 10°
2026-05-07 14:19 -38.63050 -68.22934 10917 ft 180 kts 10°
2026-05-07 14:19 -38.61795 -68.22613 11074 ft 182 kts 10°
2026-05-07 14:20 -38.60529 -68.22289 11228 ft 184 kts 10°
2026-05-07 14:20 -38.59268 -68.21966 11381 ft 186 kts 10°
2026-05-07 14:20 -38.57982 -68.21636 11534 ft 187 kts 10°
2026-05-07 14:20 -38.56707 -68.21310 11684 ft 188 kts 10°
2026-05-07 14:21 -38.55392 -68.20975 11838 ft 189 kts 10°
2026-05-07 14:21 -38.54101 -68.20645 11989 ft 189 kts 10°
2026-05-07 14:21 -38.52794 -68.20311 12140 ft 189 kts 10°
2026-05-07 14:21 -38.51485 -68.19975 12291 ft 190 kts 10°
2026-05-07 14:22 -38.50177 -68.19642 12442 ft 190 kts 10°
2026-05-07 14:22 -38.48885 -68.19312 12591 ft 189 kts 10°
2026-05-07 14:22 -38.47566 -68.18976 12742 ft 189 kts
2026-05-07 14:22 -38.46284 -68.18648 12890 ft 189 kts
2026-05-07 14:23 -38.44982 -68.18442 13037 ft 187 kts 359°
2026-05-07 14:23 -38.43668 -68.18473 13188 ft 186 kts 356°
2026-05-07 14:23 -38.42366 -68.18529 13337 ft 186 kts 356°
2026-05-07 14:23 -38.41083 -68.18590 13484 ft 185 kts 356°
2026-05-07 14:24 -38.39794 -68.18655 13632 ft 184 kts 355°
2026-05-07 14:24 -38.38507 -68.18724 13780 ft 183 kts 355°
2026-05-07 14:24 -38.37231 -68.18793 13928 ft 183 kts 355°
2026-05-07 14:24 -38.35952 -68.18865 14076 ft 182 kts 355°
2026-05-07 14:25 -38.34678 -68.18937 14225 ft 182 kts 355°
2026-05-07 14:25 -38.33402 -68.19009 14375 ft 181 kts 354°
2026-05-07 14:25 -38.32150 -68.19081 14521 ft 180 kts 354°
2026-05-07 14:25 -38.30888 -68.19153 14669 ft 180 kts 354°
2026-05-07 14:26 -38.29616 -68.19226 14819 ft 179 kts 354°
2026-05-07 14:26 -38.28376 -68.19297 14965 ft 178 kts 354°
2026-05-07 14:26 -38.27129 -68.19370 15113 ft 177 kts 354°
2026-05-07 14:26 -38.25892 -68.19441 15260 ft 176 kts 353°
2026-05-07 14:27 -38.24672 -68.19511 15405 ft 175 kts 353°
2026-05-07 14:27 -38.23447 -68.19581 15553 ft 175 kts 353°
2026-05-07 14:27 -38.22225 -68.19651 15702 ft 175 kts 353°
2026-05-07 14:27 -38.20984 -68.19723 15853 ft 175 kts 353°
2026-05-07 14:28 -38.19751 -68.19794 15993 ft 175 kts 353°
2026-05-07 14:28 -38.18507 -68.19867 16021 ft 181 kts 353°
2026-05-07 14:28 -38.17217 -68.19943 16025 ft 187 kts 353°
2026-05-07 14:28 -38.15888 -68.20020 16025 ft 192 kts 353°
2026-05-07 14:29 -38.14541 -68.20097 16024 ft 197 kts 353°
2026-05-07 14:29 -38.13164 -68.20174 16023 ft 200 kts 353°
2026-05-07 14:29 -38.11738 -68.20255 16022 ft 203 kts 353°
2026-05-07 14:29 -38.10301 -68.20335 16022 ft 206 kts 354°
2026-05-07 14:30 -38.08835 -68.20416 16021 ft 208 kts 354°
2026-05-07 14:30 -38.07386 -68.20497 16020 ft 210 kts 354°
2026-05-07 14:30 -38.05917 -68.20579 16020 ft 212 kts 354°
2026-05-07 14:30 -38.04416 -68.20664 16020 ft 213 kts 354°
2026-05-07 14:31 -38.02918 -68.20749 16019 ft 214 kts 354°
2026-05-07 14:31 -38.01429 -68.20833 16019 ft 215 kts 354°
2026-05-07 14:31 -37.99924 -68.20918 16019 ft 215 kts 354°
2026-05-07 14:31 -37.98414 -68.21003 16019 ft 216 kts 354°
2026-05-07 14:32 -37.96914 -68.21088 16019 ft 216 kts 354°
2026-05-07 14:32 -37.95391 -68.21174 16019 ft 217 kts 354°
2026-05-07 14:32 -37.93859 -68.21261 16019 ft 217 kts 354°
2026-05-07 14:32 -37.92347 -68.21346 16019 ft 217 kts 354°
2026-05-07 14:33 -37.90813 -68.21433 16018 ft 217 kts 354°
2026-05-07 14:33 -37.89301 -68.21519 16019 ft 217 kts 354°
2026-05-07 14:33 -37.87783 -68.21605 16019 ft 218 kts 354°
2026-05-07 14:33 -37.86293 -68.21689 16019 ft 218 kts 354°
2026-05-07 14:34 -37.84782 -68.21774 16019 ft 218 kts 354°
2026-05-07 14:34 -37.83246 -68.21861 16019 ft 218 kts 354°
2026-05-07 14:34 -37.81724 -68.21948 16019 ft 218 kts 354°
2026-05-07 14:34 -37.80195 -68.22034 16019 ft 218 kts 354°
2026-05-07 14:35 -37.78675 -68.22120 16019 ft 218 kts 354°
2026-05-07 14:35 -37.77148 -68.22205 16019 ft 218 kts 354°
2026-05-07 14:35 -37.75604 -68.22293 16019 ft 218 kts 354°
2026-05-07 14:35 -37.74069 -68.22379 16019 ft 218 kts 354°
2026-05-07 14:36 -37.72535 -68.22465 16019 ft 218 kts 354°
2026-05-07 14:36 -37.71024 -68.22551 16019 ft 218 kts 354°
2026-05-07 14:36 -37.69494 -68.22637 16019 ft 218 kts 354°
2026-05-07 14:36 -37.67944 -68.22725 16019 ft 218 kts 354°
2026-05-07 14:37 -37.66427 -68.22810 16019 ft 218 kts 354°
2026-05-07 14:37 -37.63361 -68.22983 16019 ft 219 kts 354°
2026-05-07 14:37 -37.61816 -68.23070 16019 ft 219 kts 354°
2026-05-07 14:38 -37.60294 -68.23155 16019 ft 219 kts 354°
2026-05-07 14:38 -37.58767 -68.23241 16019 ft 219 kts 354°
2026-05-07 14:38 -37.57222 -68.23328 16019 ft 219 kts 354°
2026-05-07 14:38 -37.55677 -68.23415 16019 ft 219 kts 354°
2026-05-07 14:39 -37.54152 -68.23500 16019 ft 219 kts 354°
2026-05-07 14:39 -37.52631 -68.23586 16019 ft 219 kts 354°
2026-05-07 14:39 -37.51085 -68.23673 16019 ft 219 kts 354°
2026-05-07 14:39 -37.49544 -68.23759 16019 ft 219 kts 354°
2026-05-07 14:40 -37.48003 -68.23846 16019 ft 219 kts 354°
2026-05-07 14:40 -37.46486 -68.23930 16019 ft 219 kts 354°
2026-05-07 14:40 -37.44935 -68.24017 16019 ft 219 kts 354°
2026-05-07 14:40 -37.43393 -68.24103 16019 ft 219 kts 354°
2026-05-07 14:41 -37.41854 -68.24190 16019 ft 219 kts 354°
2026-05-07 14:41 -37.40320 -68.24276 16019 ft 219 kts 354°
2026-05-07 14:41 -37.38796 -68.24361 16019 ft 219 kts 354°
2026-05-07 14:41 -37.37250 -68.24447 16019 ft 219 kts 354°
2026-05-07 14:42 -37.35712 -68.24533 16019 ft 219 kts 354°
2026-05-07 14:42 -37.34180 -68.24618 16019 ft 219 kts 354°
2026-05-07 14:42 -37.32664 -68.24703 16019 ft 219 kts 354°
2026-05-07 14:42 -37.31101 -68.24791 16019 ft 219 kts 354°
2026-05-07 14:43 -37.29576 -68.24876 16019 ft 219 kts 354°
2026-05-07 14:43 -37.28050 -68.24961 16019 ft 219 kts 354°
2026-05-07 14:43 -37.26514 -68.25047 16018 ft 219 kts 354°
2026-05-07 14:43 -37.24957 -68.25133 16019 ft 219 kts 354°
2026-05-07 14:44 -37.23420 -68.25219 16019 ft 219 kts 354°
2026-05-07 14:44 -37.21887 -68.25304 16018 ft 219 kts 354°
2026-05-07 14:44 -37.20354 -68.25389 16018 ft 219 kts 354°
2026-05-07 14:44 -37.18824 -68.25474 16018 ft 219 kts 354°
2026-05-07 14:45 -37.17290 -68.25559 16018 ft 219 kts 354°
2026-05-07 14:45 -37.15765 -68.25644 16018 ft 219 kts 354°
2026-05-07 14:45 -37.14220 -68.25730 16018 ft 219 kts 354°
2026-05-07 14:45 -37.12686 -68.25816 16018 ft 219 kts 354°
2026-05-07 14:46 -37.11131 -68.25902 16020 ft 219 kts 354°
2026-05-07 14:46 -37.09615 -68.25988 16024 ft 218 kts 354°
2026-05-07 14:46 -37.08072 -68.26077 16028 ft 217 kts 354°
2026-05-07 14:46 -37.06555 -68.26163 16031 ft 216 kts 355°
2026-05-07 14:47 -37.05053 -68.26250 16035 ft 214 kts 355°
2026-05-07 14:47 -37.03540 -68.26338 16037 ft 213 kts
2026-05-07 14:47 -37.02065 -68.26467 16043 ft 213 kts
2026-05-07 14:47 -37.00572 -68.26549 16049 ft 213 kts
2026-05-07 14:48 -36.99062 -68.26617 16054 ft 214 kts
2026-05-07 14:48 -36.97554 -68.26687 16059 ft 215 kts
2026-05-07 14:48 -36.96042 -68.26760 16064 ft 216 kts
2026-05-07 14:48 -36.94546 -68.26834 16073 ft 218 kts
2026-05-07 14:49 -36.93001 -68.26914 16079 ft 219 kts
2026-05-07 14:49 -36.91453 -68.26995 16085 ft 220 kts
2026-05-07 14:49 -36.89900 -68.27078 16090 ft 221 kts
2026-05-07 14:49 -36.88347 -68.27162 16096 ft 222 kts
2026-05-07 14:50 -36.86779 -68.27248 16101 ft 222 kts
2026-05-07 14:50 -36.85209 -68.27334 16107 ft 223 kts
2026-05-07 14:50 -36.83640 -68.27420 16113 ft 223 kts
2026-05-07 14:50 -36.82088 -68.27505 16118 ft 224 kts
2026-05-07 14:51 -36.80524 -68.27592 16124 ft 224 kts
2026-05-07 14:51 -36.78925 -68.27679 16128 ft 224 kts
2026-05-07 14:51 -36.77344 -68.27766 16129 ft 225 kts
2026-05-07 14:51 -36.75773 -68.27853 16129 ft 225 kts
2026-05-07 14:52 -36.74205 -68.27940 16129 ft 225 kts
2026-05-07 14:52 -36.72623 -68.28026 16129 ft 225 kts
2026-05-07 14:52 -36.71029 -68.28114 16129 ft 226 kts
2026-05-07 14:52 -36.69439 -68.28200 16129 ft 226 kts
2026-05-07 14:53 -36.67857 -68.28288 16129 ft 226 kts
2026-05-07 14:53 -36.66284 -68.28374 16129 ft 226 kts
2026-05-07 14:53 -36.64685 -68.28462 16129 ft 226 kts
2026-05-07 14:53 -36.63094 -68.28548 16129 ft 226 kts
2026-05-07 14:54 -36.61517 -68.28635 16129 ft 226 kts
2026-05-07 14:54 -36.59912 -68.28723 16129 ft 226 kts
2026-05-07 14:54 -36.58316 -68.28810 16129 ft 226 kts
2026-05-07 14:54 -36.56720 -68.28898 16129 ft 226 kts
2026-05-07 14:55 -36.55154 -68.28982 16129 ft 226 kts
2026-05-07 14:55 -36.53558 -68.29069 16129 ft 226 kts
2026-05-07 14:55 -36.51949 -68.29158 16129 ft 226 kts
2026-05-07 14:55 -36.50372 -68.29244 16129 ft 227 kts
2026-05-07 14:56 -36.48778 -68.29331 16129 ft 227 kts
2026-05-07 14:56 -36.47201 -68.29417 16129 ft 227 kts
2026-05-07 14:56 -36.45607 -68.29504 16129 ft 227 kts
2026-05-07 14:56 -36.44004 -68.29591 16129 ft 227 kts
2026-05-07 14:57 -36.42408 -68.29678 16129 ft 227 kts
2026-05-07 14:57 -36.40807 -68.29765 16129 ft 227 kts
2026-05-07 14:57 -36.39240 -68.29851 16129 ft 227 kts
2026-05-07 14:57 -36.37628 -68.29939 16129 ft 227 kts
2026-05-07 14:58 -36.36028 -68.30026 16129 ft 227 kts
2026-05-07 14:58 -36.34436 -68.30112 16129 ft 227 kts
2026-05-07 14:58 -36.32853 -68.30199 16129 ft 227 kts
2026-05-07 14:58 -36.31256 -68.30286 16129 ft 227 kts
2026-05-07 14:59 -36.29676 -68.30371 16129 ft 227 kts
2026-05-07 14:59 -36.28067 -68.30459 16129 ft 227 kts
2026-05-07 14:59 -36.26504 -68.30544 16129 ft 227 kts
2026-05-07 14:59 -36.24900 -68.30630 16129 ft 227 kts
2026-05-07 15:00 -36.23295 -68.30718 16129 ft 227 kts
2026-05-07 15:00 -36.21718 -68.30803 16129 ft 227 kts
2026-05-07 15:00 -36.20123 -68.30890 16129 ft 227 kts
2026-05-07 15:00 -36.18526 -68.30976 16129 ft 227 kts
2026-05-07 15:01 -36.16929 -68.31062 16129 ft 227 kts
2026-05-07 15:01 -36.15345 -68.31149 16129 ft 227 kts
2026-05-07 15:01 -36.13737 -68.31235 16126 ft 227 kts
2026-05-07 15:01 -36.12159 -68.31320 16122 ft 227 kts
2026-05-07 15:02 -36.10561 -68.31406 16118 ft 227 kts
2026-05-07 15:02 -36.08946 -68.31494 16114 ft 228 kts
2026-05-07 15:02 -36.07375 -68.31579 16111 ft 228 kts
2026-05-07 15:02 -36.05762 -68.31666 16107 ft 228 kts
2026-05-07 15:03 -36.04172 -68.31752 16103 ft 228 kts
2026-05-07 15:03 -36.02557 -68.31839 16100 ft 228 kts
2026-05-07 15:03 -36.00973 -68.31924 16097 ft 228 kts
2026-05-07 15:03 -35.99378 -68.32011 16094 ft 228 kts
2026-05-07 15:04 -35.97781 -68.32097 16093 ft 228 kts
2026-05-07 15:04 -35.96171 -68.32183 16094 ft 228 kts
2026-05-07 15:04 -35.94586 -68.32269 16094 ft 227 kts
2026-05-07 15:04 -35.92993 -68.32355 16094 ft 227 kts
2026-05-07 15:05 -35.91384 -68.32442 16095 ft 227 kts
2026-05-07 15:05 -35.89812 -68.32526 16095 ft 227 kts
2026-05-07 15:05 -35.88209 -68.32613 16095 ft 227 kts
2026-05-07 15:05 -35.86627 -68.32697 16095 ft 227 kts
2026-05-07 15:06 -35.85017 -68.32784 16096 ft 227 kts
2026-05-07 15:06 -35.83427 -68.32869 16096 ft 227 kts
2026-05-07 15:06 -35.81836 -68.32954 16090 ft 227 kts
2026-05-07 15:06 -35.80249 -68.33039 16084 ft 228 kts
2026-05-07 15:07 -35.78645 -68.33125 16076 ft 228 kts
2026-05-07 15:07 -35.77057 -68.33210 16069 ft 228 kts
2026-05-07 15:07 -35.75464 -68.33295 16061 ft 228 kts
2026-05-07 15:07 -35.73850 -68.33382 16054 ft 228 kts
2026-05-07 15:08 -35.72239 -68.33469 16046 ft 228 kts
2026-05-07 15:08 -35.70649 -68.33553 16038 ft 228 kts
2026-05-07 15:08 -35.69031 -68.33640 16030 ft 228 kts
2026-05-07 15:08 -35.67456 -68.33724 16023 ft 229 kts
2026-05-07 15:09 -35.65833 -68.33811 16021 ft 228 kts
2026-05-07 15:09 -35.64233 -68.33897 16020 ft 228 kts
2026-05-07 15:09 -35.62633 -68.33982 16020 ft 228 kts
2026-05-07 15:09 -35.61036 -68.34068 16020 ft 228 kts
2026-05-07 15:10 -35.59436 -68.34154 16021 ft 228 kts
2026-05-07 15:10 -35.57856 -68.34238 16021 ft 227 kts
2026-05-07 15:10 -35.56250 -68.34323 16021 ft 227 kts
2026-05-07 15:10 -35.54647 -68.34409 16021 ft 227 kts
2026-05-07 15:11 -35.53075 -68.34493 16021 ft 227 kts
2026-05-07 15:11 -35.51467 -68.34579 16021 ft 227 kts
2026-05-07 15:11 -35.49857 -68.34664 16021 ft 227 kts
2026-05-07 15:11 -35.48278 -68.34748 16021 ft 227 kts
2026-05-07 15:12 -35.46677 -68.34834 16021 ft 227 kts
2026-05-07 15:12 -35.45075 -68.34918 16021 ft 227 kts
2026-05-07 15:12 -35.43493 -68.35002 16021 ft 227 kts
2026-05-07 15:12 -35.41897 -68.35088 16021 ft 227 kts
2026-05-07 15:13 -35.40308 -68.35171 16021 ft 227 kts
2026-05-07 15:13 -35.38703 -68.35257 16021 ft 227 kts
2026-05-07 15:13 -35.37133 -68.35340 16021 ft 227 kts
2026-05-07 15:13 -35.35530 -68.35426 16021 ft 227 kts
2026-05-07 15:14 -35.33928 -68.35510 16021 ft 227 kts
2026-05-07 15:14 -35.32339 -68.35595 16021 ft 227 kts
2026-05-07 15:14 -35.30741 -68.35679 16021 ft 227 kts
2026-05-07 15:14 -35.29162 -68.35764 16044 ft 226 kts
2026-05-07 15:15 -35.27574 -68.35847 16047 ft 226 kts
2026-05-07 15:15 -35.25975 -68.35932 16048 ft 226 kts
2026-05-07 15:15 -35.24395 -68.36014 15924 ft 233 kts
2026-05-07 15:15 -35.22710 -68.36096 15700 ft 241 kts
2026-05-07 15:16 -35.20986 -68.36182 15461 ft 248 kts
2026-05-07 15:16 -35.19242 -68.36271 15221 ft 254 kts
2026-05-07 15:16 -35.17445 -68.36364 14977 ft 258 kts
2026-05-07 15:16 -35.15630 -68.36459 14731 ft 261 kts
2026-05-07 15:17 -35.13777 -68.36557 14481 ft 263 kts
2026-05-07 15:17 -35.11939 -68.36654 14234 ft 264 kts
2026-05-07 15:17 -35.10090 -68.36752 13985 ft 265 kts
2026-05-07 15:17 -35.08218 -68.36865 13732 ft 265 kts 359°
2026-05-07 15:18 -35.06363 -68.36996 13481 ft 265 kts 359°
2026-05-07 15:18 -35.04482 -68.37134 13226 ft 265 kts 359°
2026-05-07 15:18 -35.02658 -68.37262 12979 ft 265 kts 359°
2026-05-07 15:18 -35.00783 -68.37390 12724 ft 264 kts 358°
2026-05-07 15:19 -34.98927 -68.37492 12472 ft 264 kts 359°
2026-05-07 15:19 -34.97070 -68.37578 12217 ft 263 kts 359°
2026-05-07 15:19 -34.95262 -68.37666 11968 ft 263 kts 358°
2026-05-07 15:19 -34.93405 -68.37758 11713 ft 263 kts 358°
2026-05-07 15:20 -34.91568 -68.37849 11456 ft 263 kts 358°
2026-05-07 15:20 -34.89716 -68.37941 11101 ft 266 kts 358°
2026-05-07 15:20 -34.87859 -68.38032 10753 ft 269 kts 358°
2026-05-07 15:20 -34.85950 -68.38127 10398 ft 270 kts 358°
2026-05-07 15:21 -34.84070 -68.38220 10048 ft 271 kts 358°
2026-05-07 15:21 -34.82159 -68.38314 9693 ft 271 kts 358°
2026-05-07 15:21 -34.80284 -68.38406 9345 ft 271 kts 358°
2026-05-07 15:21 -34.78381 -68.38500 8991 ft 271 kts 358°
2026-05-07 15:22 -34.76489 -68.38593 8639 ft 271 kts 358°
2026-05-07 15:22 -34.74580 -68.38686 8283 ft 271 kts 358°
2026-05-07 15:22 -34.72694 -68.38779 7932 ft 271 kts 358°
2026-05-07 15:22 -34.70790 -68.38872 7576 ft 270 kts 358°
2026-05-07 15:23 -34.68908 -68.38963 7224 ft 270 kts 358°
2026-05-07 15:23 -34.67032 -68.39055 6872 ft 269 kts 358°
2026-05-07 15:23 -34.65147 -68.39147 6518 ft 269 kts 358°
2026-05-07 15:23 -34.63250 -68.39239 6162 ft 268 kts 358°
2026-05-07 15:24 -34.61422 -68.39326 5799 ft 257 kts 358°
2026-05-07 15:24 -34.59707 -68.39663 5421 ft 249 kts 340°
2026-05-07 15:24 -34.58246 -68.40739 5045 ft 234 kts 321°
2026-05-07 15:24 -34.57120 -68.42078 4726 ft 213 kts 314°
2026-05-07 15:25 -34.56172 -68.43361 4527 ft 192 kts 313°
2026-05-07 15:25 -34.55339 -68.44518 4325 ft 175 kts 313°
2026-05-07 15:25 -34.54561 -68.45606 4125 ft 163 kts 313°
2026-05-07 15:25 -34.53832 -68.46625 3925 ft 152 kts 313°
2026-05-07 15:26 -34.53150 -68.47581 3724 ft 142 kts 313°
2026-05-07 15:26 -34.52514 -68.48470 3481 ft 137 kts 313°
2026-05-07 15:26 -34.51895 -68.49332 3174 ft 136 kts 313°
2026-05-07 15:26 -34.51360 -68.50077 2905 ft 136 kts 313°
2026-05-07 15:27 -34.51277 -68.50189 2914 ft 95 kts 309°
2026-05-07 15:27 -34.51188 -68.50347 2923 ft 0 kts 218°